Location: Unspecified
(48.8656°N, 0.0000°E)
Time: 01:13:02
(UTC+00:00)

SR - Pass Details

Date: 03 July 2019
Orbit: 578 x 878 km, 66.7° (Epoch: 16 August)

Event Time Altitude Azimuth Distance (km) Brightness Sun altitude
Rises 07:44:08 0° 328° (NNW) 2,981 ? 33.4°
Reaches altitude 10° 07:46:47 10° 343° (NNW) 2,117 ? 33.8°
Maximum altitude 07:50:39 23° 37° (NE) 1,480 ? 34.4°
Drops below altitude 10° 07:54:45 10° 90° (E) 2,268 ? 35.1°
Sets 07:57:42 0° 104° (ESE) 3,249 ? 35.6°
